STARLINK-1276 (45368 NORAD) Tracking and Keplerian Element Data

This shows tracking and keplerian element data for the satellite.

Feedback or suggestion? Click here.




ElementValue
Catalog45368
NameSTARLINK-1276
Epoch Orbit1763
Epoch Day189.91668981
Epoch Year2020
RAAN102.6768
Inclination53.001
Eccentricity0.0001663
Argument of Perigee87.9951
Mean Anonmoly33.6863
Mean Motion15.0558398
Decay Rate-0.00033699
L11 45368U 20019J 20189.91668981 -.00033699 00000-0 -23044-2 0 9993
L22 45368 53.0010 102.6768 0001663 87.9951 33.6863 15.05583980 17632

Live tracking and technical data element details for STARLINK-1276 (NORAD 45368). STARLINK-1276 can be tracked NOW for your location showing map with azimuth and elevation plus other details from your city location.

Track the satellite on the map from your city or location and see movement details for azimuth, elevation, latitude, longitude, range, height, and movement on the map or in text.







IsCatalogInMostPopularTable: catalog: 45368, numindb: 19
Update: records affected: 1



GetName: 45368 STARLINK-1276

Hit Count: updated at: Fri, 10 Jul 2020 03:13:59 GMT